Location: Newark
(45.8667°N, 9.7333°E)
Time: 22:00:57
(UTC+00:00)

A-11 Canister half - Pass Details

Date: 26 January 2020
Orbit: 1517 x 1683 km, 47.2° (Epoch: 19 February)

Event Time Altitude Azimuth Distance (km) Brightness Sun altitude
Rises 00:22:53 0° 254° (WSW) 4,721 - -61.2°
Reaches altitude 10° 00:25:58 10° 255° (WSW) 3,721 - -60.9°
Maximum altitude 00:35:22 90° 339° (NNW) 1,526 - -60.1°
Drops below altitude 10° 00:44:40 10° 78° (ENE) 3,682 - -59.3°
Exits shadow 00:44:48 10° 78° (ENE) 3,727 11.2 -59.3°
Sets 00:47:42 0° 79° (ENE) 4,670 11.9 -59.0°
